sat.trackr.live / text

‹ back to catalog

STARLINK-11405 [DTC]

NORAD 63008 · 2025-032D

PAYLOAD ACTIVE UNKNOWN

§ Identity

Operator
Country
US
Launch date
2025-02-15
Launch site
AFETR
Launch vehicle
Mass (kg)
RCS (m²)

Purposes: comms

External: N2YO · Heavens-Above · Gunter

§ Orbital elements

Epoch: 2026-05-25T03:11:59.807040Z

Period
91.67 min
Inclination
43.0023°
Eccentricity
0.0001895
Mean motion
15.70863976 rev/d
Perigee alt
355.2 km
Apogee alt
357.7 km
Semi-major
6,734.6 km
B*
1.2004e-3
RAAN
94.8104°
Arg perigee
263.2275°
Mean anomaly
96.8377°
Rev number
7,408

§ Raw data

STARLINK-11405 [DTC]1 63008U 25032D   26145.13333110  .00156680  00000+0  12004-2 0  99962 63008  43.0023  94.8104 0001895 263.2275  96.8377 15.70863976 74088

JSON: /api/v1/satellites/63008 · /tle

For live sub-satellite position, see the globe view (requires WebGL).

§ Visibility from observer

Set your observer location to see the next 7 days of passes ≥ 10°. The values pass through the URL so the page stays shareable.

No JS? Fill the form by hand. The geolocation button needs JavaScript.